Location: Unspecified
(0.0000°N, 0.0000°E)
Time: 22:19:57
(UTC+00:00)

deb Explorer IX - Pass Details

Date: 15 December 2018
Orbit: 538 x 1115 km, 38.8° (Epoch: 18 January)

Event Time Altitude Azimuth Distance (km) Brightness Sun altitude
Rises 14:06:26 0° 223° (SW) 3,598 ? 50.5°
Reaches altitude 10° 14:09:16 10° 220° (SW) 2,559 ? 50.0°
Maximum altitude 14:15:15 64° 140° (SE) 870 ? 48.8°
Drops below altitude 10° 14:20:16 10° 59° (ENE) 2,154 ? 47.8°
Sets 14:22:29 0° 55° (NE) 2,988 ? 47.3°
